Wind_Speed
56 45 47 54 57 56 54 53 51 41 38 42 41 34 31 39 35 39 36 35 31 28 33 33 29 27 25 24 23 23 23 24 23 23 23 24 25 24 21 21 19 18 20 22
62 55 45 46 50 54 55 54 49 43 42 44 43 38 33 37 37 35 32 33 32 32 34 33 31 29 26 28 26 23 25 24 25 25 26 23 22 20 18 19 19 21 24 23
71 53 56 57 57 58 56 56 50 45 43 47 45 44 38 37 38 34 33 35 33 33 33 32 32 31 31 27 26 29 30 28 28 27 25 23 22 21 21 22 24 25 23 22
67 59 63 57 56 59 60 54 48 44 46 49 48 52 44 40 37 35 28 30 31 33 34 35 32 32 33 32 34 33 31 31 29 28 25 25 24 23 25 25 25 26 26 26
56 59 64 70 58 55 60 56 51 47 48 51 53 58 46 42 40 30 24 28 31 36 39 37 34 32 35 37 39 40 36 33 32 31 28 28 27 28 29 26 28 29 30 30
61 60 55 58 62 60 58 57 57 50 50 61 52 56 56 43 37 29 27 28 31 34 34 32 31 31 32 35 38 41 42 38 32 30 29 29 32 32 31 32 32 31 33 33
56 57 50 51 52 55 54 55 57 58 58 61 55 58 58 42 36 35 32 31 30 30 27 26 25 25 26 32 37 41 42 37 35 34 32 33 35 34 32 34 35 35 35 35
60 61 53 54 55 52 45 47 58 65 61 60 64 63 63 49 34 34 36 32 31 29 29 28 27 25 23 26 27 29 35 36 34 32 32 30 29 29 28 28 30 31 35 36
50 54 59 50 53 51 50 52 44 58 58 62 66 64 63 55 40 36 33 35 34 32 32 30 27 24 21 20 19 21 27 28 26 26 23 19 17 18 21 26 28 31 34 37
51 51 52 56 63 56 53 45 51 56 59 61 61 66 65 60 41 37 38 37 34 36 37 32 28 26 26 24 24 24 25 25 25 26 24 22 23 26 28 30 32 36 37 40
49 54 51 56 70 62 58 56 51 51 59 59 59 64 58 59 49 42 36 35 36 36 38 36 33 30 30 29 27 26 26 28 31 31 30 28 28 32 34 35 38 41 44 46
50 53 56 56 57 62 66 63 59 61 58 57 60 65 59 58 50 41 40 38 36 35 35 34 34 33 31 31 30 31 31 33 35 35 34 34 35 37 39 41 43 45 46 49
49 62 63 61 66 70 72 70 68 65 64 64 59 58 51 53 53 42 41 40 37 43 42 37 31 31 32 34 35 38 37 37 37 37 37 39 40 42 44 47 48 48 48 49
50 53 63 63 66 65 70 65 67 66 68 60 58 51 48 50 53 49 45 43 43 40 39 40 35 35 37 37 38 39 40 41 40 41 42 43 46 47 49 50 49 49 49 49
54 53 54 59 66 75 77 72 70 74 66 67 56 57 50 50 52 52 48 45 45 45 46 50 44 43 44 42 40 39 40 41 43 44 46 48 50 51 52 51 51 50 49 48
53 53 53 61 65 74 81 81 79 78 75 68 69 63 53 56 58 56 50 48 46 45 45 50 51 49 46 42 42 44 46 48 48 49 51 53 54 54 54 53 54 54 49 47
54 52 56 60 63 76 83 79 79 75 71 67 67 54 44 51 54 56 54 52 48 49 51 45 51 51 47 49 53 53 51 51 52 54 56 56 56 55 55 54 51 49 48 46
51 42 54 56 61 77 72 66 65 70 68 67 59 52 46 50 53 55 54 55 57 53 52 48 57 55 55 55 56 55 55 56 56 57 56 56 56 56 53 49 47 45 41 40
43 44 55 58 76 73 72 67 65 64 56 53 58 48 50 51 56 60 61 62 61 57 54 54 63 68 67 61 59 58 57 56 55 55 55 53 51 48 47 45 42 40 40 42
51 51 64 58 61 83 53 60 58 65 62 51 44 41 47 51 59 61 57 58 56 56 54 55 59 64 65 61 57 56 57 58 56 53 52 50 49 47 44 41 41 42 43 45
54 62 57 62 69 79 65 61 71 72 41 36 45 38 39 48 46 50 45 48 49 48 53 55 57 58 60 62 60 59 57 55 51 50 50 48 46 45 43 42 43 44 45 47
63 59 62 57 64 67 62 70 74 43 48 56 58 45 50 49 39 44 48 49 50 51 52 49 45 47 51 55 57 56 50 47 45 46 47 48 47 45 44 44 44 44 46 49
67 61 60 61 55 52 51 50 58 58 55 56 49 50 48 39 37 42 47 51 54 55 52 56 57 52 47 49 51 49 49 50 51 50 49 49 47 46 46 45 43 45 47 49
65 54 51 55 48 46 54 60 57 56 49 52 54 50 42 39 43 41 46 45 46 50 54 57 57 58 57 55 54 54 52 51 50 49 50 47 47 45 44 42 43 44 46 47
53 48 38 48 48 45 53 51 57 65 58 59 57 46 38 39 46 47 42 46 45 47 52 57 56 57 61 59 58 55 53 51 50 49 48 46 44 43 41 42 44 46 48 49
54 49 44 40 47 47 46 47 48 51 56 53 46 47 48 52 51 45 45 46 51 51 49 56 58 54 54 54 53 51 51 51 50 49 47 45 44 44 43 46 49 50 52 53
Wind_Direction
213 223 224 228 232 234 238 240 242 240 237 238 241 233 232 241 238 231 233 232 230 229 228 229 230 229 229 232 234 232 234 232 232 233 234 233 232 237 241 250 255 257 258 258
232 243 222 225 230 230 232 236 238 237 237 241 243 238 233 239 242 234 234 236 239 230 233 232 229 230 229 230 235 239 239 237 234 233 234 236 239 241 244 249 252 250 254 266
246 243 250 243 236 233 232 234 235 236 235 239 241 239 232 239 238 236 235 234 239 233 237 240 237 234 233 234 236 239 238 239 238 240 244 244 244 241 239 244 252 262 268 270
233 229 227 222 228 231 234 233 232 232 236 238 242 240 232 231 240 237 232 235 238 232 232 238 238 236 240 239 240 239 243 244 246 248 248 250 250 249 250 253 259 262 265 269
229 229 226 228 230 231 234 233 233 229 233 237 237 244 222 235 238 244 243 239 239 235 239 243 239 239 235 241 244 242 242 245 246 246 249 252 254 255 257 261 265 272 276 278
214 222 222 227 228 228 230 232 232 232 229 234 235 242 231 226 240 240 241 237 235 234 234 236 236 237 240 242 243 243 243 246 250 252 254 257 258 260 265 267 267 272 277 280
214 218 221 221 222 223 226 233 235 232 231 236 235 239 233 228 233 239 239 237 236 238 234 231 237 238 243 243 242 244 243 244 250 250 247 254 255 263 267 268 269 271 276 277
216 213 216 220 216 222 226 235 233 230 231 238 239 235 233 232 231 241 240 238 238 243 244 242 244 248 246 245 246 235 237 244 249 253 254 254 255 255 253 258 262 262 265 268
221 221 221 225 222 219 223 232 235 235 233 234 240 239 238 240 239 242 245 243 242 244 246 245 244 245 243 247 240 230 232 236 242 245 243 240 243 261 259 258 258 260 262 266
221 224 224 222 222 225 226 226 232 234 233 234 238 242 237 241 240 239 242 245 243 243 244 246 246 244 243 238 236 239 236 233 230 235 236 247 259 268 270 272 266 264 264 266
223 230 231 226 225 228 223 224 227 233 238 238 242 244 241 245 240 237 243 246 245 246 244 242 243 244 243 245 245 240 242 238 235 238 248 259 264 269 271 270 271 268 268 272
223 218 232 236 236 231 230 234 239 241 241 241 242 246 243 245 244 240 240 243 243 244 235 243 253 249 245 243 243 242 244 244 243 244 251 262 266 268 267 269 271 272 275 276
223 225 229 230 235 233 234 233 239 243 238 241 246 246 246 249 251 240 238 239 243 241 249 261 254 246 244 250 244 240 242 240 246 254 260 264 266 266 267 269 272 276 277 279
223 226 232 231 235 240 244 243 243 241 240 242 247 249 248 243 246 245 236 237 240 243 244 252 248 250 253 246 237 239 242 246 250 256 261 264 265 267 269 272 276 280 280 279
222 228 232 234 237 237 238 242 241 238 238 241 250 249 241 241 241 241 238 236 236 240 247 243 249 252 249 247 246 244 246 251 256 258 261 264 267 269 271 274 277 281 281 281
224 235 236 237 235 235 239 240 240 239 241 246 247 246 247 245 240 240 240 235 233 237 239 241 251 248 237 239 248 254 256 258 259 261 263 266 269 271 274 277 279 281 278 278
220 226 240 241 238 235 230 236 240 242 245 245 243 245 240 247 239 235 238 241 233 233 235 244 242 231 235 244 250 256 257 257 258 261 265 268 271 275 277 279 277 274 275 279
224 234 234 246 238 241 238 238 242 245 246 244 243 235 242 249 240 239 241 243 244 240 238 240 235 234 246 254 252 252 253 254 258 263 267 271 274 275 274 270 270 274 281 287
216 225 226 234 233 235 233 241 241 243 238 238 240 235 234 240 243 238 237 242 241 237 234 236 234 238 247 249 250 252 255 258 261 264 268 268 267 266 267 269 273 278 282 288
228 229 223 225 240 232 231 236 234 243 243 240 243 236 239 248 253 238 243 247 250 248 244 244 243 245 246 250 255 256 258 260 263 265 264 264 263 265 268 270 275 282 284 289
235 234 235 225 236 235 232 241 242 244 240 241 243 239 254 260 259 243 251 246 244 246 249 250 247 248 250 250 251 254 258 260 258 256 257 257 257 261 264 270 275 278 282 286
236 239 244 240 231 239 242 247 242 241 241 249 252 244 262 253 255 251 246 241 238 240 241 241 245 247 249 250 250 251 250 249 250 250 250 253 255 260 264 268 273 278 283 286
234 237 241 243 233 236 245 249 245 247 249 243 254 256 258 249 249 262 260 254 252 249 245 246 245 242 240 238 238 239 241 243 245 248 249 250 256 260 265 271 276 280 282 284
233 243 248 243 237 235 242 253 240 243 246 236 255 256 243 249 252 259 258 251 250 248 244 249 248 243 240 239 241 241 242 245 247 247 249 254 259 264 268 274 278 281 282 284
235 237 239 240 238 240 242 242 244 245 245 252 249 246 249 258 259 255 254 248 247 244 239 241 247 246 244 244 245 245 245 247 247 249 253 258 263 266 271 275 277 279 281 282
239 244 243 242 239 239 244 245 249 245 245 249 254 253 250 251 250 253 255 251 249 249 242 241 242 241 245 247 246 248 251 251 252 254 258 262 264 266 271 274 277 279 282 284
Height
5715 5718 5724 5738 5751 5756 5762 5767 5775 5784 5784 5784 5789 5796 5800 5802 5805 5811 5816 5822 5827 5831 5832 5833 5837 5839 5841 5845 5846 5847 5849 5850 5852 5852 5852 5853 5854 5855 5857 5858 5859 5859 5858 5856
5701 5705 5726 5731 5739 5743 5750 5757 5767 5774 5778 5779 5782 5789 5794 5795 5799 5809 5813 5817 5822 5825 5825 5829 5833 5835 5838 5838 5840 5843 5844 5846 5846 5847 5848 5850 5850 5852 5854 5854 5855 5853 5852 5854
5692 5718 5718 5721 5728 5733 5741 5748 5757 5766 5769 5771 5773 5778 5787 5790 5793 5802 5806 5810 5814 5818 5821 5825 5829 5832 5832 5834 5836 5836 5837 5839 5841 5842 5845 5847 5848 5848 5848 5848 5848 5850 5850 5849
5687 5708 5703 5709 5715 5725 5733 5741 5749 5757 5761 5764 5766 5765 5777 5783 5785 5794 5799 5803 5808 5812 5815 5817 5822 5825 5828 5831 5828 5830 5834 5835 5837 5838 5840 5842 5843 5844 5843 5843 5844 5845 5845 5845
5682 5691 5696 5699 5717 5720 5727 5735 5740 5746 5751 5754 5754 5754 5771 5777 5780 5790 5795 5798 5802 5804 5806 5810 5814 5817 5819 5821 5823 5825 5827 5830 5831 5833 5835 5838 5839 5839 5838 5840 5840 5840 5840 5840
5667 5676 5683 5695 5705 5710 5716 5723 5729 5735 5739 5731 5751 5751 5756 5772 5780 5786 5789 5791 5795 5796 5799 5803 5807 5810 5812 5813 5813 5818 5821 5824 5827 5829 5831 5833 5834 5835 5835 5835 5835 5834 5834 5834
5665 5670 5680 5686 5692 5699 5706 5712 5718 5721 5720 5734 5743 5742 5749 5768 5775 5779 5781 5785 5789 5791 5795 5800 5802 5805 5806 5807 5807 5810 5814 5818 5821 5823 5824 5825 5826 5826 5828 5828 5828 5828 5828 5827
5649 5655 5666 5677 5684 5692 5702 5706 5705 5705 5716 5731 5725 5733 5740 5758 5770 5773 5777 5780 5785 5790 5793 5795 5796 5799 5800 5800 5799 5801 5807 5810 5813 5815 5816 5817 5819 5820 5821 5822 5822 5822 5821 5819
5646 5653 5661 5672 5680 5684 5689 5687 5706 5700 5708 5713 5714 5732 5736 5747 5764 5769 5773 5775 5780 5784 5787 5789 5790 5793 5794 5795 5796 5798 5801 5804 5807 5809 5810 5811 5813 5814 5815 5815 5815 5815 5814 5812
5639 5646 5654 5664 5665 5669 5675 5692 5687 5689 5696 5702 5710 5718 5729 5740 5758 5760 5763 5768 5772 5775 5779 5782 5784 5785 5788 5790 5792 5794 5797 5799 5801 5803 5804 5804 5805 5807 5807 5807 5807 5807 5805 5804
5632 5637 5646 5647 5644 5662 5670 5670 5676 5685 5688 5696 5704 5707 5727 5731 5744 5752 5756 5760 5763 5767 5771 5774 5776 5779 5781 5784 5786 5789 5791 5792 5795 5797 5797 5798 5799 5800 5800 5800 5799 5798 5796 5794
5627 5628 5631 5637 5650 5656 5660 5664 5671 5670 5682 5688 5689 5696 5714 5721 5731 5744 5750 5750 5755 5757 5761 5765 5769 5772 5775 5777 5779 5781 5783 5786 5787 5788 5790 5791 5791 5791 5791 5791 5789 5788 5786 5784
5619 5613 5621 5627 5630 5635 5638 5652 5661 5668 5671 5672 5683 5686 5707 5716 5721 5733 5739 5743 5746 5749 5752 5755 5759 5763 5766 5768 5770 5772 5775 5777 5778 5779 5781 5782 5781 5781 5780 5779 5778 5776 5775 5773
5596 5603 5606 5614 5626 5632 5633 5645 5652 5656 5658 5673 5671 5689 5696 5703 5707 5717 5727 5731 5735 5740 5743 5747 5749 5753 5755 5758 5760 5763 5765 5767 5768 5769 5770 5770 5770 5769 5769 5768 5767 5765 5764 5762
5582 5587 5596 5606 5613 5617 5622 5628 5636 5639 5651 5653 5672 5673 5687 5691 5696 5700 5711 5719 5723 5728 5733 5736 5738 5741 5743 5746 5749 5752 5754 5756 5758 5758 5759 5758 5758 5758 5757 5756 5755 5753 5752 5750
5576 5580 5587 5591 5601 5603 5605 5611 5618 5626 5639 5643 5653 5656 5674 5677 5682 5689 5697 5705 5711 5715 5720 5723 5726 5729 5731 5733 5736 5739 5741 5743 5745 5746 5745 5745 5745 5744 5744 5743 5742 5740 5739 5738
5565 5573 5576 5578 5590 5589 5583 5596 5606 5616 5628 5637 5637 5656 5672 5661 5667 5675 5682 5689 5697 5700 5703 5709 5713 5715 5718 5721 5723 5725 5728 5730 5731 5731 5732 5732 5732 5731 5730 5730 5729 5729 5728 5727
5559 5565 5567 5571 5574 5566 5574 5591 5599 5605 5613 5622 5629 5640 5650 5650 5655 5658 5666 5673 5678 5686 5692 5694 5698 5702 5704 5708 5711 5713 5715 5716 5717 5718 5719 5719 5719 5719 5719 5718 5718 5717 5716 5715
5549 5554 5554 5556 5558 5558 5568 5581 5587 5590 5602 5613 5617 5629 5634 5636 5634 5638 5648 5653 5661 5669 5674 5679 5682 5685 5688 5692 5696 5700 5702 5704 5705 5705 5706 5705 5705 5705 5705 5705 5704 5704 5703 5701
5535 5540 5541 5545 5545 5541 5567 5575 5582 5585 5580 5599 5608 5618 5624 5624 5616 5630 5643 5646 5650 5656 5659 5661 5666 5671 5676 5680 5683 5686 5688 5689 5690 5691 5692 5692 5692 5692 5692 5692 5692 5690 5689 5687
5523 5525 5528 5535 5535 5539 5554 5563 5565 5567 5590 5602 5598 5606 5611 5605 5611 5625 5623 5625 5631 5635 5641 5646 5649 5655 5661 5663 5666 5669 5672 5674 5674 5676 5678 5678 5678 5679 5679 5679 5678 5676 5674 5673
5515 5518 5518 5524 5527 5536 5547 5548 5551 5575 5579 5583 5589 5595 5594 5595 5600 5606 5607 5611 5614 5619 5624 5630 5635 5640 5644 5647 5650 5652 5655 5658 5661 5662 5663 5664 5664 5665 5665 5664 5663 5660 5659 5659
5501 5507 5513 5516 5523 5535 5537 5543 5549 5560 5566 5570 5574 5577 5577 5581 5589 5591 5594 5599 5602 5606 5610 5615 5620 5623 5627 5631 5633 5637 5640 5643 5645 5647 5649 5649 5650 5650 5649 5648 5646 5646 5645 5644
5493 5499 5501 5506 5516 5520 5524 5532 5538 5543 5550 5555 5560 5563 5566 5570 5575 5581 5581 5584 5587 5592 5596 5599 5603 5608 5612 5616 5619 5622 5624 5628 5631 5633 5634 5635 5635 5635 5634 5632 5631 5630 5630 5628
5481 5485 5489 5496 5502 5508 5512 5516 5523 5532 5537 5541 5545 5549 5553 5559 5563 5566 5570 5572 5575 5577 5581 5584 5588 5593 5597 5601 5604 5608 5610 5613 5615 5617 5619 5619 5619 5619 5618 5616 5616 5616 5616 5615
5467 5472 5476 5482 5491 5496 5501 5505 5510 5517 5524 5528 5533 5538 5541 5545 5549 5552 5555 5560 5562 5565 5568 5571 5575 5579 5583 5587 5591 5594 5596 5599 5601 5602 5603 5603 5603 5602 5602 5602 5602 5602 5602 5600